カタログに戻る

HULIANWANG DIGUI-120

運用中通信LEO
NORAD 67060·PAYLOAD·🇨🇳 China

打ち上げ Dec 11, 2025 から Wenchang Space Launch Site

Loading…

次のパス (今後24時間)

TLE

最新Source: Space-Track

元期: Sep 14, 2026, 21:41 UTC

1 67060U 25295B   26257.90406466 -.00000114  00000-0  21149-4 0  9997
2 67060  50.0039  63.8709 0000852  63.4598 296.6362 13.29328084 37432

AllMySatでHULIANWANG DIGUI-120をリアルタイム追跡

Download on the App Store